TimeCDT,TemperatureF,Dew PointF,Humidity,Sea Level PressureIn,VisibilityMPH,Wind Direction,Wind SpeedMPH,Gust SpeedMPH,PrecipitationIn,Events,Conditions,WindDirDegrees,DateUTC
12:13 AM,39.2,33.8,81,29.72,10.0,WSW,8.1,-,N/A,,Clear,240,2012-10-09 05:13:00
12:33 AM,41.0,35.6,81,29.71,10.0,WSW,8.1,-,N/A,,Clear,250,2012-10-09 05:33:00
12:54 AM,39.2,35.6,87,29.72,10.0,WSW,6.9,-,N/A,,Scattered Clouds,250,2012-10-09 05:54:00
1:13 AM,41.0,35.6,81,29.72,10.0,WSW,6.9,-,N/A,,Mostly Cloudy,250,2012-10-09 06:13:00
1:33 AM,42.8,35.6,76,29.72,10.0,WSW,9.2,-,N/A,,Mostly Cloudy,240,2012-10-09 06:33:00
1:53 AM,42.8,35.6,76,29.73,10.0,WSW,9.2,-,N/A,,Scattered Clouds,250,2012-10-09 06:53:00
2:13 AM,42.8,35.6,76,29.73,10.0,West,9.2,-,N/A,,Scattered Clouds,260,2012-10-09 07:13:00
2:34 AM,42.8,33.8,70,29.73,10.0,West,8.1,-,N/A,,Mostly Cloudy,270,2012-10-09 07:34:00
3:13 AM,39.2,33.8,81,29.72,10.0,West,6.9,-,N/A,,Mostly Cloudy,260,2012-10-09 08:13:00
3:34 AM,41.0,33.8,76,29.72,10.0,WSW,6.9,-,N/A,,Mostly Cloudy,250,2012-10-09 08:34:00
3:53 AM,41.0,33.8,76,29.72,10.0,West,8.1,-,N/A,,Overcast,260,2012-10-09 08:53:00
4:13 AM,39.2,33.8,81,29.73,10.0,West,8.1,-,N/A,,Scattered Clouds,260,2012-10-09 09:13:00
4:34 AM,39.2,33.8,81,29.73,10.0,West,8.1,-,N/A,,Scattered Clouds,270,2012-10-09 09:34:00
4:53 AM,41.0,32.0,70,29.74,10.0,West,6.9,-,N/A,,Mostly Cloudy,270,2012-10-09 09:53:00
5:13 AM,41.0,32.0,70,29.74,10.0,West,6.9,-,N/A,,Mostly Cloudy,270,2012-10-09 10:13:00
5:34 AM,41.0,32.0,70,29.74,10.0,West,8.1,-,N/A,,Mostly Cloudy,270,2012-10-09 10:34:00
5:53 AM,41.0,30.2,65,29.75,10.0,West,9.2,-,N/A,,Mostly Cloudy,270,2012-10-09 10:53:00
6:13 AM,42.8,30.2,61,29.75,10.0,West,11.5,21.9,N/A,,Scattered Clouds,260,2012-10-09 11:13:00
6:34 AM,42.8,30.2,61,29.75,10.0,West,10.4,-,N/A,,Clear,270,2012-10-09 11:34:00
6:53 AM,41.0,28.4,61,29.76,10.0,West,9.2,-,N/A,,Mostly Cloudy,270,2012-10-09 11:53:00
7:13 AM,41.0,30.2,65,29.76,10.0,West,13.8,17.3,N/A,,Mostly Cloudy,280,2012-10-09 12:13:00
7:34 AM,39.2,28.4,65,29.76,10.0,West,11.5,17.3,N/A,,Scattered Clouds,270,2012-10-09 12:34:00
7:53 AM,39.2,28.4,65,29.76,10.0,West,16.1,21.9,N/A,,Clear,270,2012-10-09 12:53:00
8:13 AM,39.2,26.6,61,29.77,10.0,West,13.8,18.4,N/A,,Clear,270,2012-10-09 13:13:00
8:34 AM,39.2,28.4,65,29.77,10.0,West,12.7,-,N/A,,Clear,260,2012-10-09 13:34:00
8:53 AM,41.0,28.4,61,29.76,10.0,West,13.8,-,N/A,,Clear,260,2012-10-09 13:53:00
9:13 AM,42.8,26.6,53,29.77,10.0,West,18.4,24.2,N/A,,Clear,270,2012-10-09 14:13:00
9:34 AM,42.8,26.6,53,29.77,10.0,West,25.3,29.9,N/A,,Scattered Clouds,260,2012-10-09 14:34:00
9:53 AM,42.8,26.6,53,29.77,10.0,West,21.9,27.6,N/A,,Mostly Cloudy,270,2012-10-09 14:53:00
10:13 AM,42.8,26.6,53,29.77,10.0,West,18.4,24.2,N/A,,Mostly Cloudy,280,2012-10-09 15:13:00
10:33 AM,42.8,28.4,57,29.78,10.0,West,23.0,29.9,N/A,,Mostly Cloudy,260,2012-10-09 15:33:00
10:53 AM,42.8,28.4,57,29.78,10.0,West,23.0,29.9,N/A,,Overcast,270,2012-10-09 15:53:00
11:14 AM,42.8,28.4,57,29.79,10.0,West,16.1,26.5,N/A,,Mostly Cloudy,270,2012-10-09 16:14:00
11:33 AM,42.8,28.4,57,29.79,10.0,West,19.6,26.5,N/A,,Overcast,280,2012-10-09 16:33:00
11:53 AM,42.8,28.4,57,29.80,10.0,West,21.9,29.9,N/A,,Overcast,280,2012-10-09 16:53:00
12:14 PM,42.8,30.2,61,29.80,10.0,West,20.7,25.3,N/A,,Mostly Cloudy,280,2012-10-09 17:14:00
12:33 PM,42.8,30.2,61,29.80,10.0,West,21.9,-,N/A,,Mostly Cloudy,280,2012-10-09 17:33:00
12:53 PM,42.8,30.2,61,29.81,10.0,WNW,25.3,28.8,N/A,,Overcast,290,2012-10-09 17:53:00
1:14 PM,41.0,32.0,70,29.82,10.0,WNW,28.8,35.7,N/A,,Mostly Cloudy,290,2012-10-09 18:14:00
1:33 PM,41.0,30.2,65,29.83,10.0,WNW,21.9,33.4,N/A,,Mostly Cloudy,300,2012-10-09 18:33:00
1:53 PM,42.8,30.2,61,29.83,10.0,WNW,26.5,32.2,N/A,,Overcast,290,2012-10-09 18:53:00
2:14 PM,41.0,30.2,65,29.84,10.0,NW,19.6,29.9,N/A,,Overcast,310,2012-10-09 19:14:00
2:33 PM,41.0,30.2,65,29.85,10.0,NW,24.2,34.5,N/A,,Overcast,310,2012-10-09 19:33:00
2:53 PM,39.2,30.2,70,29.86,10.0,WNW,24.2,29.9,N/A,,Overcast,300,2012-10-09 19:53:00
3:14 PM,39.2,28.4,65,29.87,10.0,NW,23.0,33.4,N/A,,Overcast,310,2012-10-09 20:14:00
3:33 PM,42.8,28.4,57,29.87,10.0,WNW,24.2,33.4,N/A,,Overcast,300,2012-10-09 20:33:00
3:53 PM,42.8,28.4,57,29.88,10.0,WNW,24.2,27.6,N/A,,Mostly Cloudy,300,2012-10-09 20:53:00
4:14 PM,41.0,28.4,61,29.89,10.0,WNW,21.9,28.8,N/A,,Overcast,300,2012-10-09 21:14:00
4:33 PM,39.2,28.4,65,29.90,10.0,WNW,21.9,31.1,N/A,,Overcast,300,2012-10-09 21:33:00
4:53 PM,39.2,28.4,65,29.90,10.0,WNW,20.7,26.5,N/A,,Overcast,300,2012-10-09 21:53:00
5:14 PM,39.2,26.6,61,29.91,10.0,WNW,24.2,28.8,N/A,,Overcast,300,2012-10-09 22:14:00
5:33 PM,39.2,26.6,61,29.92,10.0,WNW,20.7,28.8,N/A,,Overcast,290,2012-10-09 22:33:00
5:53 PM,39.2,26.6,61,29.93,10.0,NW,21.9,33.4,N/A,,Overcast,310,2012-10-09 22:53:00
6:13 PM,39.2,24.8,56,29.94,10.0,WNW,15.0,26.5,N/A,,Overcast,300,2012-10-09 23:13:00
6:33 PM,39.2,24.8,56,29.94,10.0,WNW,17.3,27.6,N/A,,Overcast,300,2012-10-09 23:33:00
6:54 PM,39.2,23.0,52,29.95,10.0,WNW,15.0,24.2,N/A,,Mostly Cloudy,290,2012-10-09 23:54:00
7:13 PM,37.4,24.8,60,29.95,10.0,WNW,16.1,21.9,N/A,,Mostly Cloudy,300,2012-10-10 00:13:00
7:33 PM,37.4,23.0,56,29.96,10.0,WNW,15.0,-,N/A,,Scattered Clouds,290,2012-10-10 00:33:00
7:54 PM,37.4,23.0,56,29.97,10.0,WNW,15.0,-,N/A,,Scattered Clouds,290,2012-10-10 00:54:00
8:13 PM,35.6,24.8,65,29.97,10.0,West,9.2,-,N/A,,Scattered Clouds,280,2012-10-10 01:13:00
8:33 PM,35.6,24.8,65,29.97,10.0,West,9.2,-,N/A,,Scattered Clouds,280,2012-10-10 01:33:00
8:54 PM,33.8,23.0,65,29.98,10.0,West,8.1,-,N/A,,Clear,270,2012-10-10 01:54:00
9:13 PM,33.8,23.0,65,29.98,10.0,West,9.2,-,N/A,,Clear,280,2012-10-10 02:13:00
9:33 PM,33.8,23.0,65,29.99,10.0,West,8.1,-,N/A,,Clear,280,2012-10-10 02:33:00
9:53 PM,33.8,23.0,65,29.99,10.0,West,6.9,-,N/A,,Scattered Clouds,280,2012-10-10 02:53:00
10:13 PM,33.8,24.8,70,30.00,10.0,WNW,8.1,-,N/A,,Mostly Cloudy,290,2012-10-10 03:13:00
10:34 PM,32.0,24.8,75,30.00,10.0,WNW,8.1,-,N/A,,Mostly Cloudy,290,2012-10-10 03:34:00
10:53 PM,33.8,24.8,70,30.00,10.0,WNW,6.9,-,N/A,,Overcast,300,2012-10-10 03:53:00
11:13 PM,33.8,24.8,70,30.00,10.0,WNW,6.9,-,N/A,,Mostly Cloudy,290,2012-10-10 04:13:00
11:34 PM,32.0,23.0,69,30.00,10.0,West,5.8,-,N/A,,Scattered Clouds,280,2012-10-10 04:34:00
11:53 PM,32.0,24.8,75,30.00,10.0,WNW,5.8,-,N/A,,Mostly Cloudy,290,2012-10-10 04:53:00